Weather History for Grand Island, NE

Change the Weather History Date:

Friday, October 26, 2012

  Actual Average Record
Temperature  
Mean Temperature 34 °F 48 °F  
Max Temperature 42 °F 60 °F 85 °F (1927)
Min Temperature 25 °F 36 °F 13 °F (1997)
Degree Days  
Heating Degree Days 31 17  
Month to date heating degree days 354 317  
Since 1 July heating degree days 424 432  
Cooling Degree Days 0 0  
Month to date cooling degree days 4 10  
Year to date cooling degree days 1507 1033  
Growing Degree Days 0 (Base 50)    
Moisture  
Dew Point 23 °F    
Average Humidity 66    
Maximum Humidity 84    
Minimum Humidity 48    
Precipitation  
Precipitation 0.00 in 0.05 in 2.25 in (1897)
Month to date precipitation 0.78 1.63  
Year to date precipitation 9.36 24.63  
Snow  
Snow 0.00 in 0.10 in - ()
Month to date snowfall T 0.7  
Since 1 July snowfall T 0.8  
Since 1 September snowfall T 0.8  
Snow Depth 0.00 in    
Sea Level Pressure  
Sea Level Pressure 30.50 in    
Wind  
Wind Speed 10 mph (NNW)    
Max Wind Speed 20 mph    
Max Gust Speed 24 mph    
Visibility 10 miles    
Events      
T = Trace of Precipitation, MM = Missing Value Source: NWS Daily Summary

Daily Weather History Graph

Daily Weather History Graph

Search for Another Location

Airport:

Trip Planner

Search our weather history database for the weather conditions in past years. The results will help you decide how hot, cold, wet, or windy it might be!

Date:

Astronomy

Oct. 26, 2012 Rise Set
Actual Time 7:57 AM CDT 6:36 PM CDT
Civil Twilight 7:29 AM CDT 7:04 PM CDT
Nautical Twilight 6:57 AM CDT 7:36 PM CDT
Astronomical Twilight 6:25 AM CDT 8:08 PM CDT
Moon 4:53 PM CDT (10/26) 4:54 AM CDT (10/26)
Length of Visible Light 11h 34m
Length of Day
10h 38m
Waxing Gibbous, 91% of the Moon is Illuminated
Oct 26
Waxing Gibbous
Oct 29
Full
Nov 6
Last Quarter
Nov 13
New
Nov 20
First Quarter

Hourly Weather History & Observations

Time (CDT) Temp. Windchill Dew Point Humidity Pressure Visibility Wind Dir Wind Speed Gust Speed Precip Events Conditions
12:53 AM 33.1 °F 23.4 °F 25.0 °F 72% 30.43 in 10.0 mi NNW 13.8 mph - N/A   Overcast
1:53 AM 33.1 °F 24.4 °F 25.0 °F 72% 30.45 in 10.0 mi North 11.5 mph - N/A   Overcast
2:53 AM 33.1 °F 23.4 °F 25.0 °F 72% 30.46 in 10.0 mi NNW 13.8 mph - N/A   Overcast
3:53 AM 33.1 °F 23.9 °F 23.0 °F 66% 30.48 in 10.0 mi NNW 12.7 mph - N/A   Overcast
4:53 AM 33.1 °F 22.2 °F 23.0 °F 66% 30.48 in 10.0 mi North 17.3 mph - N/A   Overcast
5:53 AM 33.8 °F 23.5 °F 23.0 °F 65% 30.45 in 10.0 mi NNW 16.1 mph - N/A   Overcast
6:53 AM 32.0 °F 22.1 °F 23.0 °F 69% 30.52 in 10.0 mi North 13.8 mph - N/A   Overcast
7:53 AM 32.0 °F 22.1 °F 21.9 °F 66% 30.54 in 10.0 mi North 13.8 mph - N/A   Overcast
8:50 AM 32.0 °F 23.0 °F 21.2 °F 64% 30.50 in 10.0 mi NNW 11.5 mph - N/A   Overcast
8:53 AM 32.0 °F 22.5 °F 21.9 °F 66% 30.56 in 10.0 mi North 12.7 mph - N/A   Overcast
9:53 AM 34.0 °F 25.0 °F 21.9 °F 61% 30.58 in 10.0 mi North 12.7 mph - N/A   Mostly Cloudy
10:53 AM 35.1 °F 26.4 °F 21.0 °F 57% 30.58 in 10.0 mi North 12.7 mph - N/A   Clear
11:53 AM 37.0 °F 29.8 °F 21.9 °F 54% 30.58 in 10.0 mi North 10.4 mph - N/A   Clear
12:53 PM 37.9 °F 30.0 °F 21.9 °F 53% 30.56 in 10.0 mi NNW 12.7 mph - N/A   Mostly Cloudy
1:53 PM 39.0 °F 31.4 °F 21.0 °F 49% 30.54 in 10.0 mi North 12.7 mph - N/A   Mostly Cloudy
2:53 PM 39.0 °F 31.0 °F 23.0 °F 53% 30.52 in 10.0 mi NW 13.8 mph - N/A   Overcast
3:53 PM 39.9 °F 32.1 °F 21.9 °F 49% 30.50 in 10.0 mi NNW 13.8 mph - N/A   Partly Cloudy
4:53 PM 39.9 °F 32.5 °F 21.9 °F 49% 30.48 in 10.0 mi NNW 12.7 mph - N/A   Clear
5:53 PM 39.0 °F 32.8 °F 21.9 °F 50% 30.47 in 10.0 mi NNW 9.2 mph - N/A   Clear
6:53 PM 34.0 °F 28.8 °F 23.0 °F 64% 30.48 in 10.0 mi NNW 5.8 mph - N/A   Clear
7:53 PM 30.9 °F 25.2 °F 23.0 °F 72% 30.50 in 10.0 mi NNW 5.8 mph - N/A   Clear
8:53 PM 28.9 °F - 21.9 °F 75% 30.49 in 10.0 mi Calm Calm - N/A   Clear
9:53 PM 28.0 °F - 23.0 °F 81% 30.47 in 10.0 mi Calm Calm - N/A   Clear
10:53 PM 28.9 °F 23.9 °F 23.0 °F 78% 30.45 in 10.0 mi South 4.6 mph - N/A   Clear
11:53 PM 27.0 °F 21.6 °F 23.0 °F 85% 30.45 in 10.0 mi SSE 4.6 mph - N/A   Clear